Theta_e
284 278 274 277 278 277 277 276 274 277 280 279 277 278 281 283 280 279 280 280 282 283 284 284 285 285 285 285 284 285 285 285 285 285 284 284 285 287 289 291 293 293 294 295
277 274 279 282 282 280 278 271 271 277 280 279 277 277 280 280 279 280 280 279 281 281 281 284 284 283 283 283 283 284 284 285 285 285 285 285 286 287 289 290 292 293 294 296
276 280 283 281 280 278 276 272 271 275 278 276 274 273 275 278 281 280 280 279 279 281 281 282 283 283 282 282 282 284 284 284 284 284 285 285 286 287 288 289 291 292 294 296
277 283 282 280 279 278 271 279 279 277 269 265 274 265 274 276 278 280 280 279 279 279 280 281 282 281 281 282 282 283 283 283 284 284 284 283 284 283 286 288 290 291 293 294
277 279 279 277 280 280 277 280 278 274 264 267 267 263 272 275 276 278 279 280 279 280 279 281 281 282 282 282 281 282 282 282 283 283 284 283 283 286 287 287 288 290 292 293
277 282 280 280 281 281 279 274 272 269 261 260 262 263 269 272 274 276 278 279 280 280 279 280 281 281 281 281 280 280 281 281 282 282 282 282 283 285 285 286 287 288 290 291
275 278 280 281 278 279 276 265 261 262 259 262 258 264 272 275 275 276 278 279 279 279 278 279 279 278 280 280 281 281 281 280 281 281 281 282 283 284 284 285 286 287 289 290
265 268 273 281 278 272 273 267 263 258 259 261 260 263 271 275 277 277 278 278 279 278 279 278 278 278 279 280 280 280 280 280 280 279 280 281 282 284 284 285 286 287 288 290
266 268 278 281 281 277 270 266 270 259 255 257 261 266 274 276 272 275 276 277 277 278 278 278 278 277 277 277 278 278 279 279 280 279 279 280 282 283 283 284 287 287 289 293
272 267 272 277 280 277 271 274 265 262 258 256 259 255 269 269 267 271 272 271 275 277 276 276 276 276 276 276 277 278 279 279 279 279 280 280 281 282 284 285 285 287 289 293
271 267 269 276 271 270 272 266 265 264 265 259 256 264 269 269 267 268 270 272 272 273 274 274 274 273 274 275 275 277 278 278 278 279 280 280 281 282 284 285 287 288 290 291
277 272 265 270 275 276 273 267 271 265 260 261 263 267 274 268 263 260 269 272 273 272 273 271 270 271 273 273 274 275 277 278 279 279 280 280 280 282 284 285 288 290 289 291
279 268 262 270 272 274 271 273 273 269 270 263 261 269 269 261 263 267 268 271 272 271 271 265 270 269 270 271 272 274 276 278 278 279 279 279 280 282 283 286 288 289 289 290
283 274 269 270 270 266 269 272 274 272 264 269 269 273 278 281 279 278 273 269 268 269 267 263 266 264 267 267 269 272 275 277 277 278 278 279 281 283 284 286 287 288 287 288
280 269 271 271 271 267 271 269 273 271 271 268 274 271 277 279 280 280 270 269 271 269 267 263 261 262 263 265 268 271 273 274 276 276 277 279 281 283 284 285 286 286 286 285
278 265 265 262 273 273 269 272 273 273 273 272 274 273 279 281 279 273 272 268 269 269 267 264 262 261 263 264 266 269 272 273 274 274 277 279 281 282 282 283 284 284 284 284
275 268 264 263 266 265 266 270 272 268 268 269 266 274 278 275 272 267 270 264 269 269 266 264 263 262 260 262 264 268 270 274 274 273 277 279 279 280 281 282 283 283 283 283
273 270 270 263 260 259 272 274 273 271 272 270 271 273 274 268 267 270 274 271 271 266 264 265 260 258 260 259 263 266 270 273 274 275 277 278 278 278 280 280 281 282 283 282
279 275 269 263 254 266 273 272 271 271 273 275 273 275 273 269 273 275 272 268 268 266 266 264 261 260 260 262 264 265 270 272 276 275 276 278 278 278 278 278 279 279 279 279
278 279 274 258 257 259 273 274 275 274 269 275 275 275 274 274 270 273 273 275 274 273 272 272 272 271 270 271 273 273 270 271 274 275 278 279 279 278 278 279 279 279 279 279
266 269 270 259 262 265 274 275 275 267 274 276 276 276 275 274 277 275 276 276 275 275 273 272 271 271 270 271 272 274 272 271 273 277 278 279 279 279 279 279 279 279 279 279
266 265 265 265 261 263 274 274 273 278 277 277 277 278 277 277 278 277 276 276 276 274 272 273 271 271 270 271 271 272 270 271 272 275 276 276 277 279 279 278 278 278 278 277
268 271 267 270 270 276 275 277 280 278 278 278 277 278 278 277 277 278 277 275 275 273 272 271 271 270 268 268 268 269 269 270 271 272 272 273 275 276 277 276 276 275 275 275
268 271 269 270 278 275 276 278 278 279 278 281 279 278 278 277 277 276 276 274 272 271 270 266 266 266 267 267 268 265 266 267 269 269 269 271 272 273 274 274 274 273 273 273
272 273 269 271 277 273 278 278 280 282 279 278 278 278 279 277 277 276 277 275 273 271 266 266 267 267 267 265 265 263 265 265 272 268 269 270 271 271 272 273 272 273 273 273
271 272 273 276 283 280 282 280 277 278 279 279 278 279 276 278 279 277 276 277 272 271 267 266 267 266 266 264 265 263 264 266 268 267 267 267 268 267 269 270 273 280 280 280
Wind_Speed
4 6 1 2 3 4 5 1 3 5 3 6 7 15 23 17 9 9 10 8 7 7 4 2 3 5 5 5 6 7 9 11 9 9 9 8 8 9 9 8 10 13 10 11
7 2 2 5 5 4 4 3 5 6 2 4 7 22 21 12 6 6 5 5 6 4 3 4 4 4 5 6 7 8 10 11 10 8 8 9 10 9 10 10 10 14 14 12
5 1 3 2 2 3 1 4 3 4 8 2 8 10 6 4 3 3 2 3 4 5 5 7 6 6 6 7 8 10 11 12 11 13 9 9 9 9 8 9 9 11 12 12
2 3 2 3 0 4 1 3 0 2 5 3 6 9 8 5 8 5 5 6 7 7 5 6 7 6 7 7 7 7 10 11 11 12 11 13 12 11 10 10 10 13 15 16
5 2 1 1 1 3 1 3 2 3 4 4 5 3 11 4 7 8 7 8 9 8 7 8 7 7 7 8 7 8 9 10 11 11 12 11 13 11 10 9 14 15 15 16
4 2 1 1 3 2 4 4 5 4 4 4 4 4 9 4 5 4 3 5 8 8 8 8 7 6 8 7 7 7 7 11 10 11 13 14 16 14 12 12 12 12 11 12
4 1 3 0 2 3 5 7 5 8 6 6 2 1 15 8 5 5 9 10 8 8 8 8 8 7 7 8 8 7 10 13 11 11 12 13 14 15 17 15 11 13 10 11
4 7 1 4 2 4 3 6 7 5 3 7 3 8 10 6 6 7 8 9 9 10 8 8 8 7 8 10 10 9 10 13 12 11 12 12 14 10 11 14 12 10 11 11
4 5 2 4 2 3 2 2 3 8 2 4 3 10 13 4 7 5 7 6 11 11 9 8 8 7 7 9 10 10 12 13 13 13 12 13 12 13 13 16 12 10 12 11
3 4 2 3 2 5 5 3 5 4 2 7 7 8 10 7 7 7 6 7 9 9 9 7 6 6 7 7 8 10 11 13 13 12 12 12 13 13 13 13 14 14 12 12
5 4 6 2 5 8 2 2 5 4 4 6 4 10 10 12 8 8 9 9 9 11 10 9 7 7 8 8 8 11 11 12 12 11 12 13 13 13 13 11 11 10 11 10
3 4 3 9 1 3 4 6 5 6 6 3 3 16 3 8 6 5 11 10 11 9 10 7 7 8 7 8 9 10 11 11 11 11 12 12 13 13 11 11 10 9 9 8
5 1 4 7 4 4 3 5 4 3 3 8 5 14 3 4 5 8 11 11 11 8 11 4 7 6 7 7 9 10 11 11 11 12 12 11 12 11 10 10 8 8 8 5
5 3 7 7 7 4 3 4 7 6 4 6 17 33 20 27 19 17 10 10 10 10 10 6 7 6 6 6 8 9 11 10 11 12 11 11 10 10 9 8 7 5 5 5
3 5 3 5 7 5 10 9 16 14 11 11 32 15 30 21 20 18 7 10 11 11 8 6 6 6 6 7 7 7 9 10 10 10 10 11 9 8 8 6 6 5 4 5
4 4 2 6 7 4 9 17 18 17 17 19 26 30 32 28 16 12 13 9 11 10 8 8 6 7 6 7 7 7 8 9 9 8 10 10 9 8 7 7 7 6 7 7
6 5 3 7 4 8 10 12 8 4 5 7 9 21 14 13 9 7 11 7 12 10 7 8 6 6 5 7 5 7 9 9 8 7 9 9 9 9 9 8 7 7 7 6
6 5 2 5 5 3 9 4 6 10 9 15 12 16 13 8 8 13 13 14 12 8 6 8 4 5 5 5 5 5 6 7 7 8 8 9 8 8 9 9 9 8 6 7
5 5 3 2 4 11 8 3 7 6 10 10 16 16 9 3 4 11 4 6 7 6 5 6 5 4 3 5 5 3 6 6 6 8 8 8 8 8 9 10 9 9 8 9
4 4 4 4 3 9 7 4 4 3 7 5 10 6 2 2 3 7 3 3 6 8 5 6 5 4 3 3 3 2 4 5 6 7 8 7 7 8 8 8 8 8 7 9
4 2 12 3 6 12 14 4 5 6 10 7 7 8 7 6 9 4 3 3 4 6 7 5 5 5 4 1 2 3 2 4 6 6 6 6 7 7 7 7 8 8 9 9
12 11 6 4 5 15 10 5 10 8 2 2 5 6 6 9 9 8 8 7 7 9 7 7 6 5 4 2 1 4 2 3 5 4 4 5 5 5 5 6 6 7 7 8
5 11 11 15 15 4 11 7 16 1 2 6 4 7 7 8 8 9 8 9 9 9 7 5 6 5 4 3 3 4 3 3 4 3 4 4 4 5 5 6 6 5 6 6
5 4 4 2 12 17 12 10 10 8 12 16 11 10 7 12 10 9 8 7 7 7 9 5 5 5 6 5 4 4 2 2 2 2 3 3 4 4 5 5 5 5 5 5
7 11 7 13 12 5 14 11 16 15 11 11 11 10 14 9 14 12 10 9 9 8 6 7 8 7 8 5 5 4 3 2 2 2 2 3 3 4 4 4 3 4 1 4
8 11 9 16 11 7 14 7 7 10 13 13 12 12 11 12 15 10 11 11 7 9 6 7 8 7 7 6 6 5 5 4 3 3 2 1 2 2 3 3 3 12 12 12
Wind_Direction
9 64 96 132 85 105 107 113 267 261 316 319 262 275 278 291 275 262 255 254 223 199 195 336 326 308 297 300 316 310 307 318 320 312 311 305 299 296 289 282 280 287 276 271
17 113 174 120 92 90 78 82 285 294 288 320 306 287 287 283 247 225 248 242 215 169 295 286 290 296 316 306 303 302 318 316 308 302 296 290 289 282 281 281 276 282 280 264
143 119 131 101 84 78 185 166 242 261 327 284 319 292 318 280 278 270 224 201 187 213 276 300 305 303 303 304 304 320 310 302 298 296 296 290 288 277 282 288 290 284 280 283
173 324 111 58 243 121 295 180 297 349 47 275 41 282 301 313 304 279 263 225 227 235 260 264 278 293 296 293 284 291 290 294 296 300 293 287 280 291 285 285 285 286 282 280
261 143 135 105 243 137 182 36 47 89 100 26 341 59 271 325 298 281 273 242 237 237 252 279 288 282 288 279 281 274 272 285 291 290 289 287 281 278 285 283 280 278 280 278
216 304 293 221 62 55 106 68 46 64 94 17 246 126 277 254 217 291 272 281 256 249 267 264 265 277 277 276 271 265 284 293 292 288 286 284 277 288 286 280 282 280 282 283
336 337 338 354 85 35 66 50 334 350 6 229 312 321 245 266 249 235 282 291 277 260 274 292 307 299 286 297 301 304 295 294 292 286 285 282 286 282 281 277 279 285 285 289
120 327 59 346 101 172 64 135 153 243 274 274 357 241 255 233 279 271 270 271 288 278 270 276 282 283 296 304 300 295 298 302 302 297 292 287 283 276 281 279 280 286 287 285
120 288 349 29 67 85 241 66 165 99 91 27 252 289 291 274 294 269 274 281 276 277 269 273 296 294 300 292 291 301 306 303 303 302 296 295 288 286 283 284 284 283 284 282
196 352 266 250 100 30 136 145 46 5 341 302 287 276 241 292 280 300 306 284 289 292 293 289 294 301 290 286 287 303 305 302 304 301 301 301 295 289 284 288 289 288 285 287
125 101 287 59 197 177 123 2 44 118 139 188 304 258 216 231 219 262 284 279 280 289 285 285 305 289 288 293 309 309 307 309 308 304 306 302 296 293 296 291 285 286 285 291
186 138 239 224 107 133 164 182 160 131 256 212 192 268 226 236 238 222 273 276 279 267 278 287 291 295 310 317 317 312 310 312 312 311 308 302 298 300 298 294 296 290 288 286
180 308 354 337 20 1 218 200 171 115 88 195 177 270 287 277 277 236 257 282 283 282 299 307 297 305 301 311 314 313 313 314 318 316 309 302 300 301 302 301 299 293 304 326
158 181 188 213 210 145 207 203 208 165 158 256 230 270 269 283 296 298 289 256 275 290 292 293 291 288 294 307 303 309 313 320 318 316 312 308 312 311 310 311 313 320 321 334
162 222 247 256 245 204 237 226 236 214 217 218 273 255 276 284 289 295 276 296 309 303 306 290 275 293 306 315 307 315 319 322 317 317 320 320 320 324 326 336 350 4 7 13
184 255 120 284 274 286 270 244 240 236 244 254 262 276 266 276 295 288 280 282 285 283 279 276 273 289 302 303 304 317 316 313 319 321 327 329 338 340 351 355 2 15 27 26
167 151 107 265 339 327 296 245 187 186 215 177 206 240 281 276 270 259 282 244 266 268 266 269 263 265 268 281 286 309 317 313 320 327 336 343 348 356 0 2 15 23 28 27
160 143 173 265 5 296 239 214 168 198 233 215 261 272 268 242 268 269 257 249 269 242 248 252 243 259 264 265 286 303 316 317 331 344 345 351 356 1 6 16 17 19 23 31
179 148 176 229 201 300 289 168 156 174 277 205 224 256 270 225 290 293 231 198 235 237 219 226 198 220 243 271 280 331 331 332 347 347 343 351 2 10 14 20 20 23 32 33
196 220 174 103 191 234 235 154 154 166 288 184 190 260 288 140 353 263 284 216 245 225 209 212 196 211 248 279 308 317 336 341 349 342 341 354 4 17 22 23 26 25 33 41
147 195 213 193 249 280 248 147 141 93 235 184 180 215 162 191 214 241 293 253 240 230 208 196 176 216 235 261 294 279 334 345 318 326 349 8 7 14 18 26 24 26 33 38
166 165 191 156 209 280 168 77 177 216 247 207 197 233 211 229 257 252 245 242 219 232 213 204 197 221 212 192 230 260 265 301 306 325 11 11 16 20 16 30 29 31 33 42
234 190 182 188 207 232 206 211 221 160 245 252 228 246 242 253 244 249 247 228 220 217 215 200 204 208 207 190 169 243 241 313 327 4 20 21 25 35 31 35 35 36 31 41
256 157 214 85 220 228 239 248 256 244 244 265 251 250 243 249 257 254 247 237 222 213 214 183 181 209 237 211 180 215 250 296 269 64 19 26 40 34 39 51 46 51 41 44
175 147 182 257 255 335 270 234 249 259 248 251 255 239 249 238 254 238 250 240 222 212 199 183 194 208 231 193 201 181 223 250 157 104 56 63 58 45 41 62 82 68 71 90
179 182 192 248 239 196 264 223 219 226 242 237 238 263 245 225 247 239 242 241 201 204 182 191 199 208 222 200 194 190 195 210 159 136 126 99 80 55 48 37 35 67 83 79